Flag for Brazil Weather past 2 weeks in Brasilia, Distrito Federal, Brazil

Now
72 °F

Passing clouds.


Feels Like: 71 °F
Forecast: 65 / 76 °F
Wind: No wind

Location: Brasilia Aeroporto

Current Time: Dec 20, 2014 at 2:55:47 AM

Latest Report: Dec 20, 2014 at 2:00 AM


Visibility: N/A

Pressure: 29.98 "Hg

Humidity: 83%

Dew point: 66 °F

Location of BrasiliaLocation

Historic Weather in Brasilia — Graph

°F

Brasilia temperature yesterday

Maximum temperature yesterday: 79 °F (at 11:00 AM)
Minimum temperature yesterday: 68 °F (at 7:00 AM)
Average temperature yesterday: 72 °F

Past Weeks' High & Low Weather Summary

 TemperatureHumidityPressure
High86 °F (Dec 9, 5:00 AM)100% (Dec 17, 7:00 AM)30.15 "Hg (Dec 17, 7:00 AM)
Low37 °F (Dec 18, 5:00 PM)43% (Dec 5, 2:00 PM)29.89 "Hg (Dec 13, 6:00 PM)
Average72 °F77%30.04 "Hg
* Reported Dec 5 1:00 AM — Dec 20 1:00 AM, Brasilia, Weather by CustomWeather, © 2014

Note: Actual official high and low records may vary slightly from our data, if they occured in-between our weather recording intervals... More about our weather records

Advertising

Brasilia weather history for previous 24 hours

 ConditionsComfort  
Time TempWeatherWind HumidityBarometerVisibility
1:00 AM
Dec 20
72 °FPassing clouds.3 mph83%30.01 "HgN/A
12:00 AM72 °FPassing clouds.3 mph83%30.04 "HgN/A
11:00 PM
Dec 19
72 °FPassing clouds.3 mph83%30.01 "HgN/A
10:00 PM68 °FPassing clouds.3 mph94%30.01 "HgN/A
9:00 PM70 °FPassing clouds.2 mph88%29.98 "HgN/A
8:00 PM72 °FScattered clouds.2 mph83%29.95 "HgN/A
7:00 PM75 °FScattered clouds.5 mph69%29.92 "HgN/A
6:00 PM75 °FScattered clouds.3 mph69%29.92 "HgN/A
5:00 PM75 °FScattered clouds.5 mph74%29.92 "HgN/A
4:00 PM73 °FPartly sunny.2 mph78%29.95 "HgN/A
3:00 PM68 °FLight rain. Partly sunny.2 mph94%N/AN/A
2:00 PM70 °FLight rain. Partly sunny.6 mph88%N/A2 mi
1:00 PM75 °FLight rain. Partly sunny.7 mph74%N/AN/A
12:00 PM77 °FScattered clouds.10 mph69%30.04 "HgN/A
11:00 AM79 °FScattered clouds.9 mph65%30.04 "HgN/A
10:00 AM75 °FBroken clouds.5 mph74%30.04 "HgN/A
9:00 AM73 °FScattered clouds.2 mph78%30.01 "HgN/A
8:00 AM70 °FPartly sunny.2 mph88%29.98 "HgN/A
7:00 AM68 °FPassing clouds.No wind83%29.95 "HgN/A
6:00 AM70 °FPassing clouds.2 mph78%29.95 "HgN/A
5:00 AM70 °FPassing clouds.10 mph83%29.95 "HgN/A
4:00 AM70 °FPassing clouds.2 mph83%29.98 "HgN/A
3:00 AM70 °FPassing clouds.No wind83%29.98 "HgN/A
2:00 AM70 °FPassing clouds.5 mph83%30.01 "HgN/A
Weather by CustomWeather, © 2014

See weather overviewHow to use our weather pages